Find Starlink 34779

NORAD ID: 65058 Int'l Des: 2025-165 Owner: SPXS Country: US Constellation: starlink operational
LEOCIRCULARRETROGRADESSO

实时位置

正在加载3D地球...

关于 Starlink 34779

正在加载描述...

即将过境

Passes for default location (London). Set your location on the main map for personalized predictions.

高度历史

Loading altitude history...

两行轨道根数

1 65058U 25165C 26107.18881878 .00002531 00000-0 17953-3 0 9997
2 65058 97.6030 185.1815 0000943 187.7214 172.3998 15.05654066 40580
Epoch: Apr 17, 2026 • Age: 10 hours

当前状态

高度 557.1 km
速度 7.58 km/s
星下点 -21.53°S, 68.05°W
发射日期 Jul 31, 2025
运行时间 0.7 years
类型 internet

技术详情

分类 Payload
质量 575.00 kg
干质量 530.00 kg
总质量 575.00 kg
长度 0.30 m
直径 4.10 m
跨度 29.00 m
形状 Box + pan
制造商 SPXS
平台类型 Starlink V2MO
阶段状态 In Orbit
所有者/国家 SPXS/US

Most Searched